Regional Weather Roundup
Issued by NWS Sterling, VA

Home | Current Version | Previous Version | Graphics & Text | Print | Product List | Glossary On
Versions: 1 2 3 4 5 6 7 8 9 10 11 12 13 14 15 16 17 18 19 20 21 22 23 24 25 26 27
000
ASUS41 KLWX 090510
RWRLWX

REGIONAL WEATHER ROUNDUP
NATIONAL WEATHER SERVICE BALTIMORE MD/WASHINGTON DC
1200 AM EST FRI DEC 09 2016

Note: "FAIR" indicates few or no clouds below 12,000 feet
with no significant weather and/or obstructions to visibility.
 TC=TEMPERATURE CELSIUS

 * =Non NWS site. Station does not report precipitation (e.g. rain,
    snow, etc.), thunder, or fog.

DCZ001-MDZ009-015-VAZ040>042-051-053>054-090600-
WASHINGTON METRO

CITY           SKY/WX    TMP DP  RH WIND       PRES   REMARKS
WASHINGTON NAT PTCLDY    34  15  46 NW10      30.21R WCI  26
DULLES         MOCLDY    31  12  45 NW20G31   30.20R WCI  19
ANDREWS AFB    CLEAR     32  14  48 NW13      30.18R WCI  22
FT BELVOIR     CLEAR     33  14  45 NW16      30.20S WCI  23
QUANTICO       CLEAR     34  17  50 VRB6      30.22R
COLLEGE PARK*  PTCLDY    32  14  47 NW12G18   30.19S WCI  23
LEESBURG*      CLOUDY    32  19  59 NW15G22   30.22S WCI  22
GAITHERSBURG*  MOCLDY    30  12  47 NW8G17    30.22R WCI  23

$$

MDZ006>007-011-014-090600-
BALTIMORE METRO

CITY           SKY/WX    TMP DP  RH WIND       PRES   REMARKS
BWI AIRPORT    PTCLDY    31  15  52 W14       30.17S WCI  21
MD SCIENCE CTR   N/A     34  13  41 MISG      30.16S
ANNAPOLIS      CLEAR     35  16  45 W10G20    30.18S WCI  27
FORT MEADE*    CLEAR     32  18  55 W8        30.21R WCI  25

$$

MDZ012-015-019>023-090600-
MARYLAND EASTERN SHORE

CITY           SKY/WX    TMP DP  RH WIND       PRES   REMARKS
OCEAN CITY     MOCLDY    35  19  52 NW16G26   30.14R WCI  25
SALISBURY      PTCLDY    34  19  54 NW16G24   30.15R WCI  24
BAY BRIDGE AP* CLEAR     34  18  51 MISG      30.18S
EASTON*        CLEAR     34  15  47 NW13G21   30.21S WCI  25

$$

MDZ017>025-090600-
SOUTHERN MARYLAND

CITY           SKY/WX    TMP DP  RH WIND       PRES   REMARKS
PATUXENT RIVER CLOUDY    35  18  49 NW24G32   30.18R WCI  23
ST INIGOES     CLOUDY    36  16  44 VRB6G20   30.18R
LEONARDTOWN*   CLOUDY    34  16  47 NW8       30.20R WCI  27

$$

MDZ003>005-090600-
NORTH CENTRAL MARYLAND

CITY           SKY/WX    TMP DP  RH WIND       PRES   REMARKS
FREDERICK*     CLOUDY    32  18  55 W15G24    30.23R WCI  22
HAGERSTOWN APT CLEAR     29  11  47 W14G25    30.17S WCI  18
WESTMINSTER*   NOT AVBL

$$

MDZ501>502-090600-
WESTERN MARYLAND

CITY           SKY/WX    TMP DP  RH WIND       PRES   REMARKS
OAKLAND*       CLOUDY    14  12  92 W9G22     30.10R FOG     WCI   2
CUMBERLAND*    NOT AVBL

$$

VAZ025>031-090600-
SHENANDOAH VALLEY

CITY           SKY/WX    TMP DP  RH WIND       PRES   REMARKS
WINCHESTER*    CLOUDY    28  12  50 NW9       30.21R WCI  20
FRONT ROYAL*   CLOUDY    32  14  47 W9G16     30.20R WCI  24
LURAY*         CLOUDY    32  19  59 W9        30.19S WCI  24
NEW MARKET*    CLOUDY    31  11  43 NW3       30.20R
STAUNTON*      MOCLDY    29  14  52 NW8G17    30.21R WCI  21
WAYNESBORO*    FAIR      29  11  47 SW3       30.18R

$$

WVZ021-048>050-054>055-090600-
EASTERN WEST VIRGINIA PANHANDLE

CITY           SKY/WX    TMP DP  RH WIND       PRES   REMARKS
MARTINSBURG    CLOUDY    30  13  49 NW9G20    30.21R WCI  22
PETERSBURG*    CLOUDY    30  14  52 NW6       30.24R

$$

VAZ036>039-050-090600-
CENTRAL FOOTHILLS

CITY           SKY/WX    TMP DP  RH WIND       PRES   REMARKS
CHARLOTTESVILL CLEAR     34  14  43 CALM      30.20R
CULPEPER*      CLEAR     34  15  45 CALM      30.22R
ORANGE*          N/A     32  18  55 CALM      30.22R
GORDONSVILLE*  FAIR      33  14  46 W3        30.20R
WARRENTON*     FAIR      32  12  43 NW9       30.20R WCI  24

$$

VAZ055>057-090600-
NORTH AND CENTRAL PIEDMONT

CITY           SKY/WX    TMP DP  RH WIND       PRES   REMARKS
FREDERICKSBRG* CLOUDY    32  19  59 CALM      30.20R
STAFFORD*      CLEAR     30  17  59 N6        30.24S

$$

NCZ024-NYZ072-PAZ021-071-VAZ022-071-090600-
OTHER REGIONAL OBSERVATIONS

CITY           SKY/WX    TMP DP  RH WIND       PRES   REMARKS
PHILADELPHIA   PTCLDY    32  13  45 W16       30.12S WCI  21
PITTSBURGH     FLURRIES  25  16  68 W13G18    30.22S WCI  14
ROANOKE        CLOUDY    31  12  45 NW14G21   30.27R WCI  21
RICHMOND       CLOUDY    37  12  35 NW9       30.20R
RALEIGH        PTCLDY    39  11  31 NW5       30.24R

$$

ANZ530>537-090600-
MARINE OBSERVATIONS

STATION/POSITION TIME  TEMP    WIND        PRES
                       AIR SEA DIR/SP/G
                 (UTC) (F)     (DEG/KT/KT) (MB)
THOMAS PT LIGHT  0500   34 47  310/ 14/ 17   N/A
BALT KEY BRIDGE  0448   33     270/ 15/ 18 1021.5S
COVE POINT       0448   35     340/ 23/ 28 1022.4R
LEWISETTA        0448   38 48  350/ 15/ 22 1021.8R
SOLOMONS ISLAND  0436   36 49  330/ 15/ 24   N/A
PINEY POINT      0448          360/ 21/ 25   N/A

$$





USA.gov is the U.S. government's official web portal to all federal, state and local government web resources and services.